Time,TemperatureF,DewpointF,PressureIn,WindDirection,WindDirectionDegrees,WindSpeedMPH,WindSpeedGustMPH,Humidity,HourlyPrecipIn,Conditions,Clouds,dailyrainin,SoftwareType,DateUTC
2013-09-19 00:05:00,55.0,50.6,30.09,South,190,6.0,6.0,85,0.00,,,0.00,Wunderground v.1.15,2013-09-19 04:05:00,
2013-09-19 00:10:00,55.1,51.0,30.09,South,186,6.0,6.0,86,0.00,,,0.00,Wunderground v.1.15,2013-09-19 04:10:00,
2013-09-19 00:15:00,55.4,51.6,30.09,SW,228,7.0,11.0,87,0.00,,,0.00,Wunderground v.1.15,2013-09-19 04:15:00,
2013-09-19 00:20:00,56.1,52.3,30.09,SSW,199,8.0,8.0,87,0.00,,,0.00,Wunderground v.1.15,2013-09-19 04:20:00,
2013-09-19 00:30:00,57.2,52.7,30.08,SSW,197,9.0,9.0,85,0.00,,,0.00,Wunderground v.1.15,2013-09-19 04:30:00,
2013-09-19 00:40:00,57.7,53.2,30.08,SSW,193,8.0,8.0,85,0.00,,,0.00,Wunderground v.1.15,2013-09-19 04:40:00,
2013-09-19 00:50:00,57.1,53.9,30.08,SE,127,4.0,4.0,89,0.00,,,0.00,Wunderground v.1.15,2013-09-19 04:50:00,
2013-09-19 01:00:00,57.3,53.8,30.08,SSE,154,1.0,2.0,88,0.00,,,0.00,Wunderground v.1.15,2013-09-19 05:00:00,
2013-09-19 01:15:00,57.4,53.9,30.08,SE,137,2.0,4.0,88,0.00,,,0.00,Wunderground v.1.15,2013-09-19 05:15:00,
2013-09-19 01:20:00,57.5,53.7,30.08,ESE,113,2.0,2.0,87,0.00,,,0.00,Wunderground v.1.15,2013-09-19 05:20:00,
2013-09-19 01:30:00,57.7,53.9,30.08,SE,143,2.0,2.0,87,0.00,,,0.00,Wunderground v.1.15,2013-09-19 05:30:00,
2013-09-19 01:40:00,57.6,53.4,30.08,SSE,159,2.0,2.0,86,0.00,,,0.00,Wunderground v.1.15,2013-09-19 05:40:00,
2013-09-19 01:50:00,57.6,53.4,30.08,SE,139,2.0,3.0,86,0.00,,,0.00,Wunderground v.1.15,2013-09-19 05:50:00,
2013-09-19 02:00:00,57.4,53.2,30.07,ENE,60,2.0,2.0,86,0.00,,,0.00,Wunderground v.1.15,2013-09-19 06:00:00,
2013-09-19 02:10:00,57.1,53.0,30.07,SE,135,2.0,2.0,86,0.00,,,0.00,Wunderground v.1.15,2013-09-19 06:10:00,
2013-09-19 02:20:00,56.8,52.7,30.07,South,189,1.0,1.0,86,0.00,,,0.00,Wunderground v.1.15,2013-09-19 06:20:00,
2013-09-19 02:30:00,56.6,52.5,30.07,ESE,109,2.0,2.0,86,0.00,,,0.00,Wunderground v.1.15,2013-09-19 06:30:00,
2013-09-19 02:40:00,56.5,52.4,30.07,East,100,1.0,2.0,86,0.00,,,0.00,Wunderground v.1.15,2013-09-19 06:40:00,
2013-09-19 02:50:00,56.4,51.9,30.07,ESE,122,1.0,1.0,85,0.00,,,0.00,Wunderground v.1.15,2013-09-19 06:50:00,
2013-09-19 03:00:00,56.1,52.0,30.07,SE,140,1.0,1.0,86,0.00,,,0.00,Wunderground v.1.15,2013-09-19 07:00:00,
2013-09-19 03:10:00,55.5,51.4,30.07,SSE,150,1.0,1.0,86,0.00,,,0.00,Wunderground v.1.15,2013-09-19 07:10:00,
2013-09-19 03:20:00,55.1,51.0,30.06,SE,129,1.0,1.0,86,0.00,,,0.00,Wunderground v.1.15,2013-09-19 07:20:00,
2013-09-19 03:30:00,54.8,51.3,30.06,SE,128,1.0,1.0,88,0.00,,,0.00,Wunderground v.1.15,2013-09-19 07:30:00,
2013-09-19 03:40:00,54.5,51.3,30.06,East,81,1.0,1.0,89,0.00,,,0.00,Wunderground v.1.15,2013-09-19 07:40:00,
2013-09-19 03:50:00,54.3,51.1,30.06,SE,137,1.0,1.0,89,0.00,,,0.00,Wunderground v.1.15,2013-09-19 07:50:00,
2013-09-19 04:00:00,54.3,51.1,30.05,ESE,122,2.0,2.0,89,0.00,,,0.00,Wunderground v.1.15,2013-09-19 08:00:00,
2013-09-19 04:10:00,54.1,51.2,30.05,SE,124,1.0,2.0,90,0.00,,,0.00,Wunderground v.1.15,2013-09-19 08:10:00,
2013-09-19 04:20:00,53.6,50.7,30.05,ESE,120,2.0,2.0,90,0.00,,,0.00,Wunderground v.1.15,2013-09-19 08:20:00,
2013-09-19 04:30:00,52.5,49.7,30.05,ESE,116,1.0,1.0,90,0.00,,,0.00,Wunderground v.1.15,2013-09-19 08:30:00,
2013-09-19 04:40:00,52.0,49.5,30.05,ESE,110,0.0,0.0,91,0.00,,,0.00,Wunderground v.1.15,2013-09-19 08:40:00,
2013-09-19 04:50:00,52.2,49.9,30.05,ESE,118,0.0,0.0,92,0.00,,,0.00,Wunderground v.1.15,2013-09-19 08:50:00,
2013-09-19 05:00:00,52.1,50.1,30.05,NE,50,1.0,1.0,93,0.00,,,0.00,Wunderground v.1.15,2013-09-19 09:00:00,
2013-09-19 05:10:00,51.7,49.5,30.05,SE,124,0.0,1.0,92,0.00,,,0.00,Wunderground v.1.15,2013-09-19 09:10:00,
2013-09-19 05:20:00,50.9,48.7,30.05,SE,124,0.0,0.0,92,0.00,,,0.00,Wunderground v.1.15,2013-09-19 09:20:00,
2013-09-19 05:30:00,50.4,48.5,30.05,SE,126,0.0,0.0,93,0.00,,,0.00,Wunderground v.1.15,2013-09-19 09:30:00,
2013-09-19 05:40:00,50.0,48.1,30.05,SE,127,0.0,0.0,93,0.00,,,0.00,Wunderground v.1.15,2013-09-19 09:40:00,
2013-09-19 05:50:00,49.6,47.7,30.05,SE,127,0.0,0.0,93,0.00,,,0.00,Wunderground v.1.15,2013-09-19 09:50:00,
2013-09-19 06:00:00,49.2,47.5,30.05,SE,124,0.0,0.0,94,0.00,,,0.00,Wunderground v.1.15,2013-09-19 10:00:00,
2013-09-19 06:10:00,48.9,47.2,30.05,SE,124,0.0,0.0,94,0.00,,,0.00,Wunderground v.1.15,2013-09-19 10:10:00,
2013-09-19 06:20:00,48.7,47.1,30.06,ESE,118,0.0,0.0,94,0.00,,,0.00,Wunderground v.1.15,2013-09-19 10:20:00,
2013-09-19 06:30:00,48.3,46.7,30.07,ESE,118,0.0,0.0,94,0.00,,,0.00,Wunderground v.1.15,2013-09-19 10:30:00,
2013-09-19 06:40:00,47.9,46.3,30.07,ESE,118,0.0,0.0,94,0.00,,,0.00,Wunderground v.1.15,2013-09-19 10:40:00,
2013-09-19 06:55:00,47.7,46.3,30.07,ESE,118,0.0,0.0,95,0.00,,,0.00,Wunderground v.1.15,2013-09-19 10:55:00,
2013-09-19 07:00:00,47.7,46.3,30.06,ESE,118,0.0,0.0,95,0.00,,,0.00,Wunderground v.1.15,2013-09-19 11:00:00,
2013-09-19 07:10:00,47.5,46.1,30.06,ESE,118,0.0,0.0,95,0.00,,,0.00,Wunderground v.1.15,2013-09-19 11:10:00,
2013-09-19 07:20:00,47.9,46.8,30.07,ESE,118,0.0,0.0,96,0.00,,,0.00,Wunderground v.1.15,2013-09-19 11:20:00,
2013-09-19 07:30:00,48.4,47.3,30.07,ESE,118,0.0,0.0,96,0.00,,,0.00,Wunderground v.1.15,2013-09-19 11:30:00,
2013-09-19 07:40:00,50.0,49.2,30.07,ESE,118,0.0,0.0,97,0.00,,,0.00,Wunderground v.1.15,2013-09-19 11:40:00,
2013-09-19 07:50:00,52.2,51.4,30.07,ESE,118,0.0,0.0,97,0.00,,,0.00,Wunderground v.1.15,2013-09-19 11:50:00,
2013-09-19 08:00:00,54.3,53.2,30.07,ESE,118,0.0,0.0,96,0.00,,,0.00,Wunderground v.1.15,2013-09-19 12:00:00,
2013-09-19 08:10:00,56.2,55.1,30.07,ESE,118,0.0,0.0,96,0.00,,,0.00,Wunderground v.1.15,2013-09-19 12:10:00,
2013-09-19 08:20:00,57.6,55.9,30.07,ESE,118,0.0,0.0,94,0.00,,,0.00,Wunderground v.1.15,2013-09-19 12:20:00,
2013-09-19 08:30:00,60.9,59.2,30.07,ESE,118,0.0,0.0,94,0.00,,,0.00,Wunderground v.1.15,2013-09-19 12:30:00,
2013-09-19 08:40:00,63.3,60.9,30.07,ESE,118,0.0,0.0,92,0.00,,,0.00,Wunderground v.1.15,2013-09-19 12:40:00,
2013-09-19 08:50:00,64.4,59.1,30.06,ESE,117,0.0,0.0,83,0.00,,,0.00,Wunderground v.1.15,2013-09-19 12:50:00,
2013-09-19 09:00:00,65.6,58.9,30.06,NNW,344,0.0,0.0,79,0.00,,,0.00,Wunderground v.1.15,2013-09-19 13:00:00,
2013-09-19 09:10:00,66.2,59.1,30.06,NW,321,0.0,1.0,78,0.00,,,0.00,Wunderground v.1.15,2013-09-19 13:10:00,
2013-09-19 09:20:00,66.0,58.9,30.07,SSE,158,1.0,1.0,78,0.00,,,0.00,Wunderground v.1.15,2013-09-19 13:20:00,
2013-09-19 09:30:00,66.0,58.2,30.07,SE,124,1.0,1.0,76,0.00,,,0.00,Wunderground v.1.15,2013-09-19 13:30:00,
2013-09-19 09:40:00,66.5,58.7,30.07,ESE,104,1.0,1.0,76,0.00,,,0.00,Wunderground v.1.15,2013-09-19 13:40:00,
2013-09-19 09:50:00,66.6,58.4,30.07,WSW,246,1.0,2.0,75,0.00,,,0.00,Wunderground v.1.15,2013-09-19 13:50:00,
2013-09-19 10:00:00,67.1,59.3,30.07,SSE,161,1.0,1.0,76,0.00,,,0.00,Wunderground v.1.15,2013-09-19 14:00:00,
2013-09-19 10:10:00,67.3,58.7,30.07,ESE,122,2.0,2.0,74,0.00,,,0.00,Wunderground v.1.15,2013-09-19 14:10:00,
2013-09-19 10:20:00,67.9,59.3,30.07,ESE,121,1.0,1.0,74,0.00,,,0.00,Wunderground v.1.15,2013-09-19 14:20:00,
2013-09-19 10:30:00,68.0,59.0,30.07,NNW,338,1.0,1.0,73,0.00,,,0.00,Wunderground v.1.15,2013-09-19 14:30:00,
2013-09-19 10:40:00,68.6,59.6,30.07,SSE,158,1.0,1.0,73,0.00,,,0.00,Wunderground v.1.15,2013-09-19 14:40:00,
2013-09-19 10:50:00,68.9,59.1,30.06,SE,124,1.0,2.0,71,0.00,,,0.00,Wunderground v.1.15,2013-09-19 14:50:00,
2013-09-19 11:00:00,69.3,58.7,30.05,NNW,340,1.0,1.0,69,0.00,,,0.00,Wunderground v.1.15,2013-09-19 15:00:00,
2013-09-19 11:10:00,70.2,59.6,30.05,South,187,1.0,1.0,69,0.00,,,0.00,Wunderground v.1.15,2013-09-19 15:10:00,
2013-09-19 11:20:00,65.1,57.0,30.05,West,277,2.0,4.0,75,0.00,,,0.00,Wunderground v.1.15,2013-09-19 15:20:00,
2013-09-19 11:30:00,65.3,57.2,30.05,NNE,12,3.0,3.0,75,0.00,,,0.00,Wunderground v.1.15,2013-09-19 15:30:00,
2013-09-19 11:40:00,65.4,57.3,30.05,NW,308,3.0,3.0,75,0.00,,,0.00,Wunderground v.1.15,2013-09-19 15:40:00,
2013-09-19 11:50:00,65.7,57.2,30.05,West,279,3.0,4.0,74,0.00,,,0.00,Wunderground v.1.15,2013-09-19 15:50:00,
2013-09-19 12:00:00,66.0,57.5,30.05,North,10,3.0,3.0,74,0.00,,,0.00,Wunderground v.1.15,2013-09-19 16:00:00,
2013-09-19 12:10:00,66.3,57.0,30.05,NNW,340,3.0,5.0,72,0.00,,,0.00,Wunderground v.1.15,2013-09-19 16:10:00,
2013-09-19 12:20:00,66.6,57.7,30.05,NW,320,3.0,3.0,73,0.00,,,0.00,Wunderground v.1.15,2013-09-19 16:20:00,
2013-09-19 12:30:00,66.9,57.6,30.05,NNE,21,3.0,3.0,72,0.00,,,0.00,Wunderground v.1.15,2013-09-19 16:30:00,
2013-09-19 12:40:00,67.3,57.6,30.05,NW,320,3.0,3.0,71,0.00,,,0.00,Wunderground v.1.15,2013-09-19 16:40:00,
2013-09-19 12:50:00,67.6,57.5,30.04,ENE,68,3.0,3.0,70,0.00,,,0.00,Wunderground v.1.15,2013-09-19 16:50:00,
2013-09-19 13:00:00,68.0,57.0,30.04,North,349,3.0,3.0,68,0.00,,,0.00,Wunderground v.1.15,2013-09-19 17:00:00,
2013-09-19 13:10:00,68.3,57.3,30.04,North,351,3.0,3.0,68,0.00,,,0.00,Wunderground v.1.15,2013-09-19 17:10:00,
2013-09-19 13:20:00,68.4,57.0,30.03,WNW,292,3.0,3.0,67,0.00,,,0.00,Wunderground v.1.15,2013-09-19 17:20:00,
2013-09-19 13:30:00,68.6,55.9,30.03,NW,314,4.0,5.0,64,0.00,,,0.00,Wunderground v.1.15,2013-09-19 17:30:00,
2013-09-19 13:40:00,68.9,55.8,30.03,NW,314,4.0,4.0,63,0.00,,,0.00,Wunderground v.1.15,2013-09-19 17:40:00,
2013-09-19 13:50:00,69.2,54.3,30.03,NW,314,3.0,4.0,59,0.00,,,0.00,Wunderground v.1.15,2013-09-19 17:50:00,
2013-09-19 14:00:00,69.5,53.6,30.02,NW,316,4.0,4.0,57,0.00,,,0.00,Wunderground v.1.15,2013-09-19 18:00:00,
2013-09-19 14:10:00,69.7,52.8,30.02,North,6,4.0,4.0,55,0.00,,,0.00,Wunderground v.1.15,2013-09-19 18:10:00,
2013-09-19 14:20:00,69.8,53.4,30.02,NW,304,4.0,4.0,56,0.00,,,0.00,Wunderground v.1.15,2013-09-19 18:20:00,
2013-09-19 14:30:00,69.7,52.3,30.02,NNW,327,5.0,6.0,54,0.00,,,0.00,Wunderground v.1.15,2013-09-19 18:30:00,
2013-09-19 14:40:00,69.7,53.3,30.02,NNW,344,4.0,5.0,56,0.00,,,0.00,Wunderground v.1.15,2013-09-19 18:40:00,
2013-09-19 14:50:00,69.8,52.9,30.01,NNE,19,4.0,4.0,55,0.00,,,0.00,Wunderground v.1.15,2013-09-19 18:50:00,
2013-09-19 15:00:00,70.0,52.6,30.01,NW,307,3.0,6.0,54,0.00,,,0.00,Wunderground v.1.15,2013-09-19 19:00:00,
2013-09-19 15:10:00,70.0,52.6,30.01,NW,315,4.0,4.0,54,0.00,,,0.00,Wunderground v.1.15,2013-09-19 19:10:00,
2013-09-19 15:20:00,69.9,52.5,30.01,NW,324,4.0,4.0,54,0.00,,,0.00,Wunderground v.1.15,2013-09-19 19:20:00,
2013-09-19 15:30:00,69.6,52.2,30.00,NNW,341,4.0,4.0,54,0.00,,,0.00,Wunderground v.1.15,2013-09-19 19:30:00,
2013-09-19 15:40:00,69.4,52.0,30.00,NW,322,3.0,3.0,54,0.00,,,0.00,Wunderground v.1.15,2013-09-19 19:40:00,
2013-09-19 15:50:00,69.3,51.4,30.00,North,351,3.0,3.0,53,0.00,,,0.00,Wunderground v.1.15,2013-09-19 19:50:00,
2013-09-19 16:00:00,69.4,51.5,30.00,NW,322,3.0,3.0,53,0.00,,,0.00,Wunderground v.1.15,2013-09-19 20:00:00,
2013-09-19 16:10:00,69.4,52.0,30.00,NNW,335,3.0,3.0,54,0.00,,,0.00,Wunderground v.1.15,2013-09-19 20:10:00,
2013-09-19 16:20:00,69.5,52.1,30.00,NNW,339,3.0,3.0,54,0.00,,,0.00,Wunderground v.1.15,2013-09-19 20:20:00,
2013-09-19 16:30:00,69.4,52.0,30.00,North,6,3.0,3.0,54,0.00,,,0.00,Wunderground v.1.15,2013-09-19 20:30:00,
2013-09-19 16:40:00,70.2,53.8,30.00,North,5,2.0,2.0,56,0.00,,,0.00,Wunderground v.1.15,2013-09-19 20:40:00,
2013-09-19 16:50:00,71.2,55.2,29.99,SE,141,3.0,3.0,57,0.00,,,0.00,Wunderground v.1.15,2013-09-19 20:50:00,
2013-09-19 17:00:00,71.7,55.7,29.99,South,174,4.0,4.0,57,0.00,,,0.00,Wunderground v.1.15,2013-09-19 21:00:00,
2013-09-19 17:10:00,71.4,55.4,29.99,SSE,166,3.0,3.0,57,0.00,,,0.00,Wunderground v.1.15,2013-09-19 21:10:00,
2013-09-19 17:20:00,70.6,55.1,29.99,SSE,149,4.0,4.0,58,0.00,,,0.00,Wunderground v.1.15,2013-09-19 21:20:00,
2013-09-19 17:30:00,69.7,54.3,29.99,South,185,4.0,4.0,58,0.00,,,0.00,Wunderground v.1.15,2013-09-19 21:30:00,
2013-09-19 17:40:00,68.9,54.0,29.99,SSE,162,5.0,5.0,59,0.00,,,0.00,Wunderground v.1.15,2013-09-19 21:40:00,
2013-09-19 17:50:00,68.2,54.2,29.99,South,182,4.0,6.0,61,0.00,,,0.00,Wunderground v.1.15,2013-09-19 21:50:00,
2013-09-19 18:00:00,67.7,54.2,29.99,SSW,201,6.0,6.0,62,0.00,,,0.00,Wunderground v.1.15,2013-09-19 22:00:00,
2013-09-19 18:10:00,67.2,54.2,29.99,South,183,5.0,5.0,63,0.00,,,0.00,Wunderground v.1.15,2013-09-19 22:10:00,
2013-09-19 18:20:00,66.6,54.9,29.99,South,183,4.0,4.0,66,0.00,,,0.00,Wunderground v.1.15,2013-09-19 22:20:00,
2013-09-19 18:30:00,66.0,55.1,29.99,SSE,160,3.0,3.0,68,0.00,,,0.00,Wunderground v.1.15,2013-09-19 22:30:00,
2013-09-19 18:40:00,65.2,55.2,29.99,SSE,165,5.0,6.0,70,0.00,,,0.00,Wunderground v.1.15,2013-09-19 22:40:00,
2013-09-19 18:50:00,64.4,54.8,29.99,SSE,149,4.0,5.0,71,0.00,,,0.00,Wunderground v.1.15,2013-09-19 22:50:00,
2013-09-19 19:00:00,63.7,54.9,29.99,ESE,122,5.0,5.0,73,0.00,,,0.00,Wunderground v.1.15,2013-09-19 23:00:00,
2013-09-19 19:10:00,62.9,54.9,29.99,SSE,164,5.0,5.0,75,0.00,,,0.00,Wunderground v.1.15,2013-09-19 23:10:00,
2013-09-19 19:20:00,62.2,54.9,29.99,South,191,5.0,5.0,77,0.00,,,0.00,Wunderground v.1.15,2013-09-19 23:20:00,
2013-09-19 19:30:00,61.6,54.7,29.99,SSE,158,6.0,6.0,78,0.00,,,0.00,Wunderground v.1.15,2013-09-19 23:30:00,
2013-09-19 19:40:00,61.1,54.5,29.99,SE,145,6.0,10.0,79,0.00,,,0.00,Wunderground v.1.15,2013-09-19 23:40:00,
2013-09-19 19:50:00,60.7,54.8,29.99,South,175,6.0,7.0,81,0.00,,,0.00,Wunderground v.1.15,2013-09-19 23:50:00,
2013-09-19 20:00:00,60.3,54.4,29.99,South,179,6.0,6.0,81,0.00,,,0.00,Wunderground v.1.15,2013-09-20 00:00:00,
2013-09-19 20:10:00,59.9,54.4,29.99,South,175,6.0,6.0,82,0.00,,,0.00,Wunderground v.1.15,2013-09-20 00:10:00,
2013-09-19 20:20:00,59.6,54.4,29.99,South,170,6.0,7.0,83,0.00,,,0.00,Wunderground v.1.15,2013-09-20 00:20:00,
2013-09-19 20:30:00,59.5,54.3,30.00,South,190,5.0,5.0,83,0.00,,,0.00,Wunderground v.1.15,2013-09-20 00:30:00,
2013-09-19 20:40:00,59.2,54.4,30.00,South,179,6.0,6.0,84,0.00,,,0.00,Wunderground v.1.15,2013-09-20 00:40:00,
2013-09-19 20:50:00,58.9,54.4,30.00,SSE,155,6.0,6.0,85,0.00,,,0.00,Wunderground v.1.15,2013-09-20 00:50:00,
2013-09-19 21:00:00,58.7,54.2,30.00,SSE,167,6.0,6.0,85,0.00,,,0.00,Wunderground v.1.15,2013-09-20 01:00:00,
2013-09-19 21:10:00,58.4,54.2,30.00,South,191,5.0,5.0,86,0.00,,,0.00,Wunderground v.1.15,2013-09-20 01:10:00,
2013-09-19 21:20:00,58.3,54.4,30.00,SW,220,5.0,5.0,87,0.00,,,0.00,Wunderground v.1.15,2013-09-20 01:20:00,
2013-09-19 21:30:00,58.1,54.2,30.00,SSE,164,4.0,4.0,87,0.00,,,0.00,Wunderground v.1.15,2013-09-20 01:30:00,
2013-09-19 21:40:00,57.9,54.4,30.00,SSW,196,5.0,6.0,88,0.00,,,0.00,Wunderground v.1.15,2013-09-20 01:40:00,
2013-09-19 21:50:00,57.9,54.4,30.00,South,185,5.0,5.0,88,0.00,,,0.00,Wunderground v.1.15,2013-09-20 01:50:00,
2013-09-19 22:00:00,58.0,54.8,30.00,South,175,6.0,6.0,89,0.00,,,0.00,Wunderground v.1.15,2013-09-20 02:00:00,
2013-09-19 22:10:00,58.1,54.9,30.00,South,173,6.0,12.0,89,0.00,,,0.00,Wunderground v.1.15,2013-09-20 02:10:00,
2013-09-19 22:20:00,58.0,54.8,30.00,SSW,204,6.0,6.0,89,0.00,,,0.00,Wunderground v.1.15,2013-09-20 02:20:00,
2013-09-19 22:30:00,57.8,54.6,30.00,SSE,158,5.0,5.0,89,0.00,,,0.00,Wunderground v.1.15,2013-09-20 02:30:00,
2013-09-19 22:40:00,57.5,54.3,30.00,SSE,163,5.0,5.0,89,0.00,,,0.00,Wunderground v.1.15,2013-09-20 02:40:00,
2013-09-19 22:50:00,57.5,54.6,30.00,South,190,6.0,6.0,90,0.00,,,0.00,Wunderground v.1.15,2013-09-20 02:50:00,
2013-09-19 23:00:00,57.5,54.6,29.99,SSW,205,6.0,8.0,90,0.00,,,0.00,Wunderground v.1.15,2013-09-20 03:00:00,
2013-09-19 23:10:00,57.4,54.5,29.99,SSW,213,5.0,5.0,90,0.00,,,0.00,Wunderground v.1.15,2013-09-20 03:10:00,
2013-09-19 23:20:00,57.3,54.7,29.99,South,179,5.0,5.0,91,0.00,,,0.00,Wunderground v.1.15,2013-09-20 03:20:00,
2013-09-19 23:30:00,57.1,54.5,29.99,South,183,5.0,7.0,91,0.00,,,0.00,Wunderground v.1.15,2013-09-20 03:30:00,
2013-09-19 23:40:00,56.8,54.2,29.99,SSW,194,5.0,5.0,91,0.00,,,0.00,Wunderground v.1.15,2013-09-20 03:40:00,
2013-09-19 23:50:00,56.7,54.4,29.99,South,172,5.0,5.0,92,0.00,,,0.00,Wunderground v.1.15,2013-09-20 03:50:00,